Regional Weather Roundup
Issued by NWS

Home | Current Version | Previous Version | Graphics & Text | Print | Product List | Glossary On
Versions: 1 2 3 4 5 6 7 8 9 10 11 12 13 14 15 16 17 18 19 20 21 22 23 24 25 26 27 28 29 30 31 32 33 34 35 36 37 38 39 40 41 42 43 44 45 46 47 48 49 50
000
ASUS43 KLOT 241403
RWRIL

ILLINOIS REGIONAL WEATHER ROUNDUP
NATIONAL WEATHER SERVICE CHICAGO/ROMEOVILLE IL
800 AM CST TUE JAN 24 2017

NOTE: "FAIR" INDICATES FEW OR NO CLOUDS BELOW 12,000 FEET WITH NO
SIGNIFICANT WEATHER AND/OR OBSTRUCTIONS TO VISIBILITY.

* THESE STATIONS ARE NOT UNDER NWS QUALITY CONTROL. THEY ALSO MAY NOT
  REPORT WEATHER SUCH AS PRECIPITATION OR FOG.

ILZ001-002-007-009-015-016-024-241500-
NORTHWEST ILLINOIS

CITY           SKY/WX    TMP DP  RH WIND       PRES   REMARKS
MOLINE         CLOUDY    34  30  85 CALM      29.88F
STERLING*      CLOUDY    34  33  96 CALM      29.90S
SAVANNA*       CLOUDY    33  32  96 CALM      29.89F
$$

ILZ003-004-008-010-011-017-018-241500-
NORTH CENTRAL ILLINOIS

CITY           SKY/WX    TMP DP  RH WIND       PRES   REMARKS
ROCKFORD       CLOUDY    35  30  82 NW7       29.91S WCI  29
FREEPORT*      CLOUDY    33  30  88 CALM      29.91S
ROCHELLE*      CLOUDY    34  32  91 N3        29.90R
DE KALB*       CLOUDY    34  31  90 NW7       29.89S WCI  28
PERU*          CLOUDY    33  32  94 W5        29.90S FOG     WCI  29
$$

ILZ005-006-012>014-019>023-241500-
NORTHEAST ILLINOIS

CITY           SKY/WX    TMP DP  RH WIND       PRES   REMARKS
CHICAGO-OHARE  CLOUDY    35  31  85 NW8       29.88R WCI  29
CHICAGO-MIDWAY CLOUDY    37  30  75 W8        29.89R WCI  31
AURORA         CLOUDY    36  32  85 W7        29.89R WCI  30
LANSING*       CLOUDY    37  34  91 W7        29.89R WCI  31
JOLIET*        CLOUDY    38  32  81 NW3       29.90R
WAUKEGAN       CLOUDY    35  32  88 W7        29.87R WCI  29
DUPAGE AIRPORT CLOUDY    35  30  82 NW10      29.88R WCI  27
KANKAKEE*      CLOUDY    37  32  81 CALM      29.90S
WHEELING       CLOUDY    35  31  85 NW8       29.89R WCI  29
MORRIS*        CLOUDY    36  33  88 CALM      29.89S
ROMEOVILLE*    CLOUDY    36  34  93 NW6       29.89S WCI  31
NORTHERLY ISL    N/A     36  31  82 W5          N/A  WCI  32
$$

LMZ740>746-241500-
SOUTHERN LAKE MICHIGAN

STATION/POSITION SKY/WX   TEMP    WIND        PRES    VSBY  WAVE
                          AIR SEA DIR/SP/G                  HT/PER
                          (F)     (DEG/KT/KT) (MB)    (MI)  (FT/S)
HARRISON CRIB              37     290/  8/ 10   N/A
BURNHAM HARBOR             36     240/  7/ 10   N/A
CALUMET HARBOR             37     280/  4/  7 1011.5R
BURNS HARBOR               36     300/ 10/ 12 1012.9R
$$

ILZ025>027-034>036-040-047-049-050-058-095>099-241500-
WEST-CENTRAL ILLINOIS

CITY           SKY/WX    TMP DP  RH WIND       PRES   REMARKS
QUINCY         CLOUDY    33  30  88 SE8       29.86F WCI  26
GALESBURG*     CLOUDY    32  32  99 CALM      29.88F FOG
MACOMB*        CLOUDY    33  31  92 CALM      29.90S
JACKSONVILLE*  CLOUDY    35  30  82 CALM      29.90R
PITTSFIELD*    CLOUDY    35  31  87 E7        29.89S WCI  29
$$

ILZ028>032-037-038-041>044-048-051>054-059>061-241500-
CENTRAL ILLINOIS

CITY           SKY/WX    TMP DP  RH WIND       PRES   REMARKS
BLOOMINGTON    CLOUDY    36  34  92 CALM      29.90S
DECATUR        CLOUDY    38  36  92 CALM      29.90S
PEORIA         CLOUDY    35  33  92 CALM      29.90S FOG
LACON*         CLOUDY    35  33  95 CALM      29.89F FOG
LINCOLN*       CLOUDY    37  35  94 CALM      29.90S
SPRINGFIELD    CLOUDY    38  34  85 CALM      29.90S
TAYLORVILLE    CLOUDY    36  33  89 CALM      29.90F
$$

ILZ033-039-045-046-055>057-062-063-241500-
EAST-CENTRAL ILLINOIS

CITY           SKY/WX    TMP DP  RH WIND       PRES   REMARKS
CHAMPAIGN      CLOUDY    39  32  76 W3        29.90R
RANTOUL*       CLOUDY    39  38  95 CALM      29.89S FOG
MATTOON        CLOUDY    38  33  82 N5        29.90R WCI  34
PARIS*         CLOUDY    38  36  90 W3        29.92R
$$

ILZ079-100>102-241500-
SOUTHWEST ILLINOIS

CITY           SKY/WX    TMP DP  RH WIND       PRES   REMARKS
ALTON          MOCLDY    36  30  80 E7        29.91S WCI  30
BELLEVILLE     MOCLDY    34  32  93 CALM      29.91R
CAHOKIA*       CLOUDY    38  32  79 S3        29.91R
SPARTA*        CLOUDY    36  32  87 CALM      29.93R
$$

ILZ064>066-069>071-074>076-080>082-084>086-088>090-092>094-241500-
SOUTH-CENTRAL ILLINOIS

CITY           SKY/WX    TMP DP  RH WIND       PRES   REMARKS
CARBONDALE     MOCLDY    38  33  82 NE5       29.92F WCI  34
CAIRO*         CLEAR     32  32 100 CALM      29.93S FOG
EFFINGHAM*     CLOUDY    39  35  84 CALM      29.93S
MARION         MOCLDY    39  36  87 SE3       29.94S
MT. VERNON     CLOUDY    39  34  82 CALM      29.94R
CENTRALIA*     CLOUDY    39  35  87 SW3       29.92R
SALEM*         CLOUDY    39  35  85 CALM      29.92R
METROPOLIS*    CLOUDY    39  34  81 CALM      29.94S
$$

ILZ067-068-072-073-078-083-087-091-241500-
SOUTHEAST ILLINOIS

CITY           SKY/WX    TMP DP  RH WIND       PRES   REMARKS
LAWRENCEVILLE  CLOUDY    40  34  79 VRB7      29.93S
FLORA*         CLOUDY    41  37  84 CALM      29.93R
FAIRFIELD*     CLOUDY    40  34  77 CALM      29.92R
HARRISBURG*    CLOUDY    40  33  78 N3        29.94S
ROBINSON*      CLOUDY    39  34  82 N6        29.93S WCI  34
CARMI*         CLOUDY    40  35  81 CALM      29.93R
$$

ABBREVIATIONS USED IN REMARKS
   TC - TEMPERATURE IN CELSIUS
  WCI - WIND CHILL INDEX
   HX - HEAT INDEX
  VSB - VISIBILITY
$$




USA.gov is the U.S. government's official web portal to all federal, state and local government web resources and services.